Theta_e
337 336 338 338 345 342 338 336 335 338 340 338 337 339 343 345 342 335 340 339 323 322 323 324 326 327 330 333 335 336 336 336 336 333 332 330 328 328 328 329 331 333 332 328 324 321 321 320 322
334 341 339 340 348 346 333 334 338 336 337 338 336 335 338 336 332 330 341 339 327 322 323 325 326 327 330 333 334 335 335 336 336 334 330 328 327 327 329 329 329 330 330 327 324 321 320 320 322
338 342 341 343 347 350 335 333 333 331 337 337 337 336 336 333 331 331 340 339 335 325 327 324 326 328 331 334 334 334 334 335 336 335 334 333 332 331 329 328 329 329 328 329 328 326 323 321 321
341 338 337 346 346 343 336 335 334 334 336 336 337 338 335 333 331 330 337 336 337 335 334 324 325 327 328 330 332 333 333 333 333 334 335 336 335 334 329 328 328 329 330 329 329 329 327 323 321
338 335 339 344 347 345 335 334 333 333 337 336 336 337 335 331 330 331 334 335 338 339 341 339 327 324 326 329 330 333 334 336 335 335 337 338 339 334 331 330 330 330 332 332 332 330 328 325 322
331 331 339 338 345 342 335 333 334 335 335 337 337 337 336 333 332 333 333 343 346 344 339 332 325 323 324 328 329 332 333 332 335 335 337 337 337 336 336 336 334 332 333 332 335 332 330 327 324
334 331 336 336 343 342 339 337 336 336 339 340 337 338 335 334 336 337 337 338 339 343 345 344 331 325 326 327 329 327 328 333 335 334 336 336 334 334 334 333 333 332 328 329 329 330 330 329 327
332 333 336 335 341 342 339 336 334 335 339 338 340 341 337 335 334 335 335 336 337 339 341 343 343 330 332 329 327 332 336 337 336 334 334 335 337 336 336 333 327 331 330 326 328 331 330 330 329
326 332 333 336 340 341 339 338 336 334 336 337 338 339 339 337 338 337 336 333 332 331 335 343 344 345 345 343 334 339 340 339 336 333 334 334 331 332 332 332 334 330 330 333 329 330 331 331 331
324 328 333 336 337 338 338 336 336 339 335 335 347 339 339 338 336 332 334 330 330 333 333 341 346 346 346 346 345 343 341 341 339 337 336 333 330 329 334 332 332 332 334 331 332 328 332 332 332
325 335 336 337 336 336 336 337 338 339 338 335 346 340 340 338 335 333 333 332 332 335 337 346 347 346 344 344 344 342 342 341 340 338 334 333 331 336 336 335 330 335 338 339 337 328 332 334 333
334 336 337 338 336 336 338 336 339 340 339 339 341 339 338 341 338 335 330 334 340 342 345 347 346 345 344 343 342 342 341 341 340 337 335 336 331 325 336 336 337 337 329 334 336 333 332 333 332
333 336 334 335 333 333 336 338 342 341 338 344 341 339 339 337 340 333 339 341 345 346 344 344 344 342 341 340 339 340 341 340 330 329 334 330 331 335 335 335 334 329 330 330 332 330 327 329 330
334 334 334 335 334 333 338 338 341 339 338 348 345 344 342 343 345 341 344 345 342 341 342 343 341 341 341 342 340 339 336 334 333 335 332 332 332 333 331 331 332 333 333 333 331 328 330 327 328
331 334 335 336 337 333 334 340 345 344 343 345 345 345 346 347 345 345 344 342 344 342 338 337 332 330 334 329 329 338 335 335 334 332 328 327 327 328 328 327 327 327 327 328 330 331 331 328 329
332 332 334 336 337 336 336 344 344 341 342 346 348 348 348 345 344 343 343 340 336 335 332 330 323 326 326 326 324 324 332 332 330 329 326 324 321 321 322 321 321 321 324 325 324 323 325 325 326
331 336 336 335 336 338 340 344 341 341 343 347 348 350 346 344 343 340 337 335 333 331 330 327 322 324 326 322 322 323 325 329 328 322 320 319 317 317 316 316 318 315 317 319 321 323 323 323 323
336 337 337 337 340 336 338 341 341 340 341 337 336 340 343 342 340 338 336 334 332 328 326 327 324 321 324 321 321 320 321 325 322 318 320 317 315 316 314 314 314 314 317 317 316 316 316 316 318
335 336 337 335 339 340 342 341 340 338 337 336 344 344 342 341 339 337 335 334 329 327 325 326 325 322 321 320 319 318 319 318 317 317 317 318 317 315 315 314 313 313 316 314 313 313 314 316 316
330 332 332 339 338 339 341 340 338 340 342 340 334 339 344 337 335 335 335 331 328 327 325 323 324 322 320 318 316 317 318 317 316 317 318 320 317 316 315 314 313 314 314 315 313 314 314 316 316
331 334 336 340 339 338 340 343 338 340 335 335 334 332 338 336 335 333 329 328 328 326 325 323 322 322 319 316 315 317 318 318 317 317 317 317 316 315 315 315 315 315 315 315 314 315 315 316 316
330 337 338 340 339 342 338 347 339 339 337 335 332 332 334 333 331 328 326 327 326 327 325 323 320 319 318 317 315 315 318 317 316 316 316 317 315 317 315 315 315 316 315 316 316 316 316 316 316
334 336 337 339 340 342 343 342 341 341 340 339 337 335 330 327 324 322 325 326 325 325 326 322 318 319 317 317 315 313 315 316 315 316 315 315 315 316 315 316 316 316 314 314 314 314 315 315 316
331 335 338 335 339 347 345 347 345 345 343 339 339 333 330 326 324 324 326 326 325 324 325 322 319 319 317 317 313 313 315 316 315 316 316 316 316 316 316 316 315 314 314 314 314 315 315 314 314
326 327 333 340 346 348 343 345 345 337 338 338 337 332 326 324 323 323 324 325 325 324 323 321 319 319 317 315 314 313 314 316 316 316 316 316 316 317 315 313 314 313 313 313 313 314 314 314 314
328 331 336 341 337 343 342 348 343 338 335 336 332 328 326 324 322 323 325 325 326 322 323 321 318 318 317 316 315 314 314 316 317 315 317 316 316 316 314 311 312 311 313 313 313 313 313 313 313
334 334 331 330 334 339 346 344 341 337 336 334 331 330 328 324 323 323 325 324 324 321 321 320 317 318 316 317 315 314 316 317 316 316 316 316 316 313 313 313 311 312 312 313 313 313 312 312 313
334 332 335 329 335 344 347 348 347 340 338 335 334 332 329 323 322 323 325 323 322 321 320 318 316 317 316 315 314 315 316 316 317 317 316 316 315 313 312 313 311 312 311 312 312 312 311 311 312
328 331 332 332 336 338 349 347 342 340 338 335 332 330 325 322 321 323 324 323 322 321 319 317 316 317 317 315 314 315 315 316 317 317 316 314 314 314 314 313 311 311 310 312 311 311 309 310 310
336 332 331 331 333 339 342 345 339 339 337 332 331 328 326 323 320 322 323 322 322 321 319 317 316 317 317 315 314 314 315 317 317 318 316 315 314 313 312 313 310 310 309 311 312 309 309 309 309
Wind_Speed
1 5 4 0 4 4 2 6 11 11 6 11 17 12 14 6 4 4 19 27 26 25 20 16 13 12 11 9 8 7 7 6 6 5 4 3 3 3 3 4 5 4 4 4 5 6 7 9 12
5 11 4 2 5 4 1 8 10 8 8 12 19 16 17 15 14 10 14 23 22 20 18 15 12 10 9 8 7 6 5 4 4 4 4 4 2 1 0 1 2 2 1 2 2 3 5 6 10
6 4 3 3 2 4 4 9 10 11 17 17 17 14 7 6 8 6 30 23 18 15 14 12 10 9 7 6 6 5 4 3 3 4 4 4 3 2 3 3 3 3 2 2 3 3 3 5 7
5 2 3 4 5 9 9 10 8 15 14 14 10 8 13 15 8 16 26 14 12 14 14 10 8 8 7 7 6 6 6 6 5 5 5 5 5 5 6 6 6 6 7 6 5 5 5 5 6
3 1 2 6 4 5 13 9 8 14 14 15 15 15 12 24 23 17 16 16 21 21 15 12 9 9 9 9 8 7 5 5 6 7 7 6 7 8 8 9 10 10 11 10 9 7 7 7 7
2 2 3 2 3 5 7 12 8 8 11 15 15 13 8 25 21 27 37 34 18 15 14 10 9 8 9 9 8 7 7 9 9 9 10 9 8 8 8 9 12 14 14 14 12 11 11 10 9
6 4 3 6 2 7 6 9 12 14 13 6 14 11 8 27 35 29 33 37 24 17 9 9 9 6 8 10 8 8 9 8 6 8 10 7 9 8 8 10 14 16 20 19 15 15 16 14 12
4 5 6 5 16 3 9 11 9 7 2 6 2 6 9 15 34 32 28 19 23 17 11 10 14 9 9 12 11 8 6 8 7 10 10 10 8 10 8 13 17 19 22 22 15 16 21 19 17
7 2 2 17 11 8 10 3 17 6 4 3 8 14 23 32 29 25 17 11 5 3 8 15 4 8 8 8 10 8 7 5 9 12 10 7 8 10 14 16 16 20 23 14 13 19 25 25 21
6 5 5 16 16 18 13 15 9 9 8 3 20 23 31 31 19 21 12 7 7 12 11 16 9 19 9 5 4 7 5 7 10 13 12 15 15 16 18 21 21 26 22 18 12 18 28 23 26
8 12 18 19 19 17 10 7 7 6 6 2 16 18 24 39 10 17 7 8 7 10 12 7 16 16 14 10 4 6 7 9 12 13 13 12 13 17 22 19 23 24 22 23 23 23 22 24 25
23 20 19 14 14 10 10 7 6 6 9 13 17 9 19 13 8 12 16 10 3 2 12 14 16 15 13 14 9 13 11 16 16 9 4 6 9 17 25 18 17 17 19 8 21 19 20 17 19
21 21 10 9 14 9 12 17 13 7 14 16 19 19 13 10 13 14 11 9 17 18 14 13 15 17 17 16 17 19 22 7 15 17 11 9 8 12 15 19 18 14 12 4 13 16 13 14 8
13 16 11 5 3 3 8 10 11 4 15 19 18 17 14 14 23 14 20 20 20 17 19 20 20 19 17 18 24 21 25 16 20 25 22 23 19 18 23 23 24 21 18 7 3 8 5 8 17
14 13 6 3 3 2 5 8 21 19 19 19 21 17 17 22 21 19 21 23 21 22 22 23 23 23 25 27 27 23 20 19 18 18 19 21 21 20 22 25 26 25 21 16 12 9 3 1 3
8 4 5 3 4 4 3 4 11 18 19 19 19 18 15 11 18 24 26 27 25 25 26 25 27 27 29 28 28 29 21 16 21 24 21 23 24 24 24 24 25 23 22 21 20 18 15 12 11
9 1 5 3 6 4 12 11 19 15 27 17 11 10 11 10 16 24 27 25 22 21 23 26 28 30 29 28 27 29 33 23 22 26 27 27 27 25 25 25 23 26 22 22 18 14 15 15 17
6 2 3 3 6 23 22 19 14 7 19 21 21 7 9 13 14 22 23 21 20 20 21 22 26 29 29 29 27 29 31 24 25 30 22 24 23 21 25 25 24 25 23 23 21 18 16 17 20
19 6 6 4 20 10 10 17 10 7 18 7 12 9 11 11 17 20 20 21 20 20 22 21 23 28 29 30 29 27 26 26 26 24 24 18 17 18 20 20 20 22 23 20 20 20 17 16 20
6 4 5 12 13 7 9 6 6 5 6 7 12 9 4 8 7 15 20 22 20 19 19 21 22 26 26 27 26 22 23 24 24 27 31 21 22 21 23 23 23 21 21 22 23 21 20 14 22
6 9 7 13 13 13 10 8 7 6 3 4 2 1 7 10 8 9 19 22 19 18 17 22 22 23 24 27 28 27 23 22 28 30 29 28 26 25 26 23 22 21 20 20 22 21 20 17 21
8 13 17 14 4 5 4 3 5 6 9 4 6 9 6 9 8 12 20 20 18 16 19 21 22 23 22 23 25 26 26 22 24 26 25 23 27 23 28 25 24 22 22 20 19 18 17 16 16
5 15 9 6 7 7 6 5 7 7 6 7 8 9 8 9 11 10 21 22 19 15 21 19 23 22 20 19 22 22 24 22 23 25 26 28 26 25 27 26 24 22 23 21 20 19 18 15 12
4 6 4 6 5 4 1 4 6 4 8 2 8 6 8 10 11 18 22 20 16 15 18 16 21 20 15 18 23 21 20 21 23 24 25 24 24 25 27 25 23 23 22 23 23 18 18 18 16
9 6 4 4 4 4 9 5 8 13 10 12 9 8 9 9 9 9 15 14 14 17 17 17 20 17 14 18 22 21 20 20 22 23 23 22 23 24 24 25 24 23 23 24 21 20 20 19 19
6 4 4 3 4 4 10 0 6 9 14 12 8 9 9 10 10 9 17 17 20 20 16 16 17 15 14 18 20 19 19 20 20 20 20 20 20 20 22 25 23 23 23 24 22 21 20 18 20
6 5 5 3 1 5 3 4 5 7 14 10 11 10 7 9 11 9 19 21 22 20 21 17 16 15 16 14 15 16 17 19 18 19 18 20 19 24 24 23 23 23 23 24 23 22 22 21 21
2 4 5 5 3 4 2 5 6 8 7 8 12 10 6 8 10 10 19 22 21 20 19 19 18 14 13 13 14 15 17 17 16 15 18 17 18 22 24 23 24 24 23 24 22 21 19 21 23
7 5 5 2 3 2 4 3 8 16 7 8 9 8 9 9 9 10 19 20 19 18 18 18 16 10 11 11 13 15 17 17 16 12 15 18 17 19 22 20 23 23 22 22 24 20 20 20 22
3 5 5 4 6 2 5 4 4 9 6 11 10 9 8 10 9 15 21 20 18 16 16 16 15 11 9 9 12 15 14 16 16 13 14 15 17 19 20 18 22 20 23 19 22 21 20 20 22
Wind_Direction
319 231 133 195 35 48 217 94 101 81 48 84 76 71 60 88 131 174 130 125 130 140 147 149 146 141 137 133 132 132 130 131 133 128 122 110 98 95 110 110 104 99 87 71 67 62 57 45 36
37 319 184 57 43 15 356 88 108 128 89 77 93 88 77 71 81 97 100 128 124 136 145 146 142 139 139 140 143 144 143 145 149 158 165 168 171 171 182 165 145 132 98 70 43 41 29 22 21
47 65 57 49 105 290 58 80 87 85 80 77 75 74 94 106 108 86 135 120 113 127 139 145 145 144 147 157 161 164 165 178 193 199 207 211 210 218 246 247 255 248 242 279 296 310 334 348 3
110 5 73 55 298 299 98 57 46 100 98 104 113 63 57 103 71 118 127 122 123 134 143 143 156 164 175 184 185 198 204 207 219 223 229 233 226 234 243 254 258 260 258 250 248 271 288 311 330
206 330 88 135 158 275 83 90 100 108 100 100 98 89 80 88 113 123 130 151 141 157 160 170 184 198 202 201 201 203 214 252 250 242 237 236 242 244 248 252 256 257 259 258 261 264 270 281 297
270 140 66 224 65 323 38 23 24 27 110 112 99 105 109 107 99 65 64 72 105 143 164 169 197 208 229 209 207 212 218 234 234 254 248 237 241 245 258 265 261 257 258 255 257 264 268 272 279
184 354 253 164 197 73 11 48 47 71 57 21 126 123 135 78 81 73 67 71 63 61 33 280 222 209 226 230 217 235 246 254 246 266 265 251 254 247 248 265 273 269 257 247 249 259 262 261 263
92 131 173 236 122 65 40 18 333 14 70 119 358 129 106 100 72 79 66 53 57 54 8 5 272 253 242 234 226 259 269 268 271 253 244 256 241 251 246 262 261 271 264 250 245 257 264 261 255
259 24 184 104 106 145 95 90 354 355 105 340 41 73 101 101 98 95 63 40 156 275 219 353 310 281 263 236 227 252 269 275 257 246 243 243 263 280 283 271 264 277 276 241 251 263 257 259 253
172 119 10 102 138 134 142 98 109 327 322 131 78 79 73 44 76 97 67 63 174 211 260 330 10 54 80 191 271 234 255 261 267 255 255 264 274 280 294 277 276 285 276 251 223 215 248 248 252
8 107 101 112 125 121 124 106 127 357 320 247 114 101 88 73 305 106 111 137 163 204 263 57 45 35 47 30 337 290 257 267 288 282 285 285 292 308 309 293 281 287 303 270 244 240 243 241 248
72 109 90 105 115 129 137 118 64 157 243 63 110 88 81 95 164 117 138 179 156 257 64 55 44 39 36 18 7 339 307 304 317 291 313 330 299 330 325 317 312 298 1 333 269 244 248 255 264
94 96 77 117 153 151 122 122 128 231 232 102 105 97 111 116 131 137 120 88 68 59 54 44 45 34 21 7 351 342 340 325 52 15 349 13 349 343 354 1 0 11 19 303 243 251 264 269 283
97 97 122 132 311 89 119 149 137 336 117 105 119 111 116 112 100 134 86 88 70 55 45 55 40 31 19 3 0 26 43 38 54 62 66 60 52 33 29 23 20 12 15 347 290 269 258 169 242
130 112 139 118 230 340 356 88 113 128 125 123 94 89 81 94 99 104 90 75 60 58 47 37 27 28 30 23 25 30 32 47 63 54 49 43 34 34 34 26 22 17 12 23 16 8 65 55 227
70 63 52 143 103 298 44 83 42 103 107 95 86 82 88 109 108 97 90 78 67 55 43 32 24 32 34 28 24 30 20 40 52 59 56 45 38 28 20 19 19 10 14 8 10 8 360 350 328
18 50 303 314 142 213 50 37 13 3 55 40 94 115 116 111 89 89 85 77 68 60 52 41 35 36 36 23 23 30 32 43 49 40 31 30 25 23 22 24 24 9 12 18 21 19 6 350 346
153 201 249 168 95 62 62 60 49 17 52 358 334 275 118 91 93 97 91 85 82 72 62 53 44 37 39 27 23 28 35 41 36 36 33 36 37 37 26 19 10 12 23 24 24 19 5 358 3
182 158 198 103 140 101 105 76 35 96 110 130 85 41 96 111 119 112 103 102 93 76 69 60 51 40 40 31 29 23 26 34 32 30 30 28 49 39 27 17 17 10 14 21 13 11 6 10 1
47 94 93 70 100 80 82 129 123 59 121 176 131 141 194 115 113 113 112 109 97 89 78 65 56 42 44 36 32 26 30 34 32 26 24 41 56 41 28 21 16 13 8 3 4 9 7 358 5
50 78 49 118 85 53 87 4 3 333 130 189 109 171 200 140 126 108 107 110 104 95 86 71 59 47 45 38 35 34 31 27 30 29 43 31 31 31 25 23 22 17 9 0 356 359 1 352 352
62 92 100 158 97 103 309 287 273 285 339 353 287 305 173 117 121 107 101 104 107 106 88 79 58 53 47 43 40 34 35 30 23 23 24 28 21 19 17 19 17 12 6 4 359 356 350 347 347
154 121 136 110 83 93 12 98 287 340 313 299 302 273 133 129 107 104 102 97 82 93 101 78 58 62 56 44 35 33 38 31 27 23 17 20 16 13 12 10 10 12 8 4 -0 3 8 7 350
294 146 58 74 116 47 241 108 276 235 214 326 283 192 129 105 101 102 103 98 98 88 110 75 59 61 60 47 36 41 37 27 22 17 14 10 9 12 13 19 15 12 13 11 11 18 14 7 2
16 9 343 17 40 194 146 113 243 218 232 202 211 107 105 107 109 94 83 86 85 87 106 82 63 69 64 45 39 41 36 28 21 14 12 10 11 13 17 13 14 11 12 13 18 16 14 12 3
305 119 131 288 163 164 158 46 295 198 213 202 143 107 97 101 106 102 90 76 92 81 90 82 73 85 71 45 39 34 33 24 15 20 20 17 17 21 13 15 10 16 16 17 17 20 15 12 9
304 1 232 187 325 93 75 326 335 161 171 138 118 99 109 113 120 115 94 79 102 83 73 88 76 97 75 62 36 36 32 19 14 22 24 27 25 23 11 10 16 17 19 20 22 22 21 21 19
237 260 9 2 6 75 358 78 301 269 150 150 128 123 125 118 112 107 96 86 82 90 76 66 58 81 83 58 45 46 33 20 13 21 17 25 22 19 15 16 15 15 21 22 25 24 24 30 35
356 13 20 93 64 89 149 219 233 231 168 143 133 130 111 111 115 112 102 92 87 79 82 70 54 84 94 62 52 43 33 25 17 15 16 21 21 18 20 21 18 12 12 21 21 27 25 34 39
335 108 91 107 311 303 115 289 266 128 133 110 114 102 105 105 108 113 108 97 95 86 91 76 58 52 113 88 58 48 36 28 27 21 20 16 17 30 29 27 19 14 7 22 26 25 27 35 38